Location: ???????
(55.4362°N, 38.1183°E)
Time: 13:56:30
(UTC+00:00)

Oscar 11 - Pass Details

Date: 11 December 2021
Orbit: 611 x 625 km, 97.6° (Epoch: 25 January)

Event Time Altitude Azimuth Distance (km) Brightness Sun altitude
Rises 03:37:42 0° 12° (NNE) 2,920 10.5 -16.5°
Reaches altitude 10° 03:39:57 10° 7° (N) 2,007 9.6 -16.2°
Maximum altitude 03:44:12 54° 291° (WNW) 762 7.1 -15.6°
Drops below altitude 10° 03:48:24 10° 215° (SW) 1,984 9.5 -15.0°
Sets 03:50:36 0° 211° (SSW) 2,883 10.4 -14.7°
